Regional Weather Roundup
Issued by NWS

Home | Current Version | Previous Version | Text Only | Print | Product List | Glossary Off
Versions: 1 2 3 4 5 6 7 8 9 10 11 12 13 14 15 16 17 18 19 20 21 22 23 24 25 26 27 28 29 30 31 32 33 34 35 36 37 38 39 40 41 42 43 44 45 46 47 48 49 50

000
ASUS43 KDMX 210507
RWRIA

WEATHER ROUNDUP FOR IOWA
NATIONAL WEATHER SERVICE DES MOINES IA
1200 AM CDT TUE OCT 21 2014

NOTE: "FAIR" INDICATES FEW OR NO CLOUDS BELOW 12,000 FEET WITH NO
SIGNIFICANT WEATHER AND/OR OBSTRUCTIONS TO VISIBILITY.

* - THESE STATIONS ARE NOT NWS STATIONS...THUS NOT UNDER NWS
QUALITY CONTROL.  THEY ALSO DO NOT REPORT WEATHER SUCH
AS PRECIPITATION OR FOG.

IAZ001>003-012>014-020>022-031>034-043>046-210600-
   NORTHWEST IOWA

CITY           SKY/WX    TMP DP  RH WIND       PRES   REMARKS
CARROLL *      PTCLDY    39  37  93 CALM      30.07R
CHEROKEE *     CLEAR     39  37  93 CALM      30.08S
DENISON *      CLEAR     41  39  93 CALM      30.06S
LE MARS *      PTCLDY    39  37  93 NE5       30.07S
ORANGE CITY *  CLEAR     52  37  58 E3        30.07S
SHELDON *      CLEAR     39  36  87 NE5       30.06S
SIOUX CITY     CLEAR     42  39  89 CALM      30.06F
SPENCER        CLEAR     38  34  85 N3        30.07S
STORM LAKE *   CLEAR     52  37  58 N5        30.08S
$$

IAZ055>058-069>071-079>083-090>094-210600-
   SOUTHWEST IOWA

CITY           SKY/WX    TMP DP  RH WIND       PRES   REMARKS
ATLANTIC *     CLEAR     41  37  87 CALM      30.07S
AUDUBON *      CLEAR     39  34  81 CALM      30.08S
CLARINDA *     CLEAR     39  39 100 CALM      30.09S
COUNCIL BLFS * CLEAR     57  37  47 SW3       30.06S
CRESTON *      CLEAR     46  41  81 W6        30.07S
HARLAN  *      CLEAR     39  39 100 CALM      30.11S
LAMONI         CLEAR     49  41  74 W6        30.06F
RED OAK *      CLEAR     41  39  93 CALM      30.08S
SHENANDOAH *   CLEAR     43  41  93 NE6       30.08S
$$

IAZ047>049-059>061-072>074-084-210600-
   CENTRAL IOWA

CITY           SKY/WX    TMP DP  RH WIND       PRES   REMARKS
AMES           CLEAR     42  38  85 CALM      30.05S
ANKENY *       CLEAR     43  43 100 CALM      30.05S
CHARITON *     PTCLDY    50  41  71 W5        30.05S
DES MOINES     CLEAR     52  42  69 CALM      30.05S
GRINNELL*      CLEAR     46  39  76 CALM      30.05S
KNOXVILLE *    CLEAR     50  39  66 NW5       30.03F
MARSHALLTOWN   CLEAR     45  39  79 N3        30.04R
PELLA *        CLEAR     48  41  75 CALM      30.05F
PERRY *          N/A     43  39  87 W5        30.06R
$$

IAZ004>006-015-016-023>025-035-036-210600-
   NORTH CENTRAL IOWA

CITY           SKY/WX    TMP DP  RH WIND       PRES   REMARKS
ALGONA *       CLEAR     48  39  71 N5        30.07R
CLARION *      CLEAR     39  37  93 CALM      30.06S
ESTHERVILLE    CLEAR     40  35  83 N5        30.07R
FORT DODGE *     N/A     39  36  87 CALM      30.06F
MASON CITY     CLEAR     39  37  92 N3        30.07R
FOREST CITY *  CLEAR     43  41  93 CALM      30.06S
IOWA FALLS *     N/A     43  37  81 CALM      30.06S
$$

IAZ007>011-017>019-026>030-037>042-050>054-066-210600-
   NORTHEAST IOWA

CITY           SKY/WX    TMP DP  RH WIND       PRES   REMARKS
CEDAR RAPIDS   CLEAR     48  41  76 NE7       30.04R
CHARLES CITY * CLEAR     45  39  81 NE7       30.06S
CLINTON *      CLEAR     43  37  81 NE5       30.07R
DECORAH *      MOCLDY    46  41  81 CALM      30.05S
DUBUQUE        CLEAR     47  40  76 MISG      30.05R
MONTICELLO *   CLEAR     41  39  93 CALM      30.05R
OELWEIN *      CLEAR     45  39  81 NE7       30.06R
WATERLOO       CLEAR     39  37  92 N3        30.05R
$$

IAZ064-065-067-068-078-210600-
   EAST CENTRAL IOWA

CITY           SKY/WX    TMP DP  RH WIND       PRES   REMARKS
DAVENPORT      CLEAR     45  38  76 E3        30.04S
IOWA CITY      CLEAR     46  43  89 NE3       30.05R
MT. PLEASANT * CLEAR     50  41  71 NW5       30.03S
MUSCATINE *    CLEAR     48  41  76 NE6       30.04R
QUAD CITIES    CLEAR     46  41  82 CALM      30.03S
$$

IAZ062-063-075>077-085>089-095>099-210600-
   SOUTHEAST IOWA

CITY           SKY/WX    TMP DP  RH WIND       PRES   REMARKS
BURLINGTON     CLEAR     49  43  80 NW5       30.02S
FAIRFIELD *    CLEAR     48  39  71 NW7       30.04S
FORT MADISON * CLEAR     52  45  76 NW5       30.03S
KEOKUK *       CLEAR     54  45  71 NW5       30.02S
OSKALOOSA *      N/A     45  39  81 CALM      30.04F
CENTERVILLE *  CLEAR     46  41  81 W6        30.06S
OTTUMWA        CLEAR     46  42  86 W5        30.04S
WASHINGTON *   CLEAR     50  43  76 N6        30.03S
$$

ABBREVIATIONS USED IN REMARKS
   TC - TEMPERATURES IN CELSIUS
  WCI - WIND CHILL INDEX
   HX - HEAT INDEX
  VSB - VISIBILITY
$$




USA.gov is the U.S. government's official web portal to all federal, state and local government web resources and services.